EW1390 Weather Reports


Display with metric or nautical units.
time (UTC)temp
F
wind
direction
speed
MPH
gust
MPH
rain 1hr
in
rain 24hr
in
rain mn
in
humidity
%
barometer
mb
20260902003037 73 229 1.0 4.0 0.00 0.00 0.00 40 1007.1
20260902001535 74 302 1.0 7.0 0.00 0.00 0.00 39 1007.1
20260902000040 73 229 0.0 7.0 0.00 0.00 0.00 41 1007.2
20260901234533 72 217 0.0 6.0 0.00 0.00 0.00 41 1007.2
20260901233033 73 225 1.0 5.0 0.00 0.00 0.00 39 1007.3
20260901231540 74 262 1.0 4.0 0.00 0.00 0.00 39 1007.3
20260901230032 74 229 1.0 5.0 0.00 0.00 0.00 38 1007.5
20260901224531 75 102 1.0 4.0 0.00 0.00 0.00 38 1007.4
20260901223030 74 227 2.0 11.0 0.00 0.00 0.00 37 1007.3
20260901221600 74 199 1.0 4.0 0.00 0.00 0.00 37 1007.5
20260901220041 75 194 2.0 10.0 0.00 0.00 0.00 37 1007.6
20260901214528 75 14 0.0 4.0 0.00 0.00 0.00 39 1007.7
20260901213025 75 93 2.0 9.0 0.00 0.00 0.00 40 1007.8
20260901211526 75 284 1.0 5.0 0.00 0.00 0.00 40 1007.7
20260901210030 75 95 1.0 7.0 0.00 0.00 0.00 40 1007.7
20260901204522 74 228 1.0 4.0 0.00 0.00 0.00 40 1007.7
20260901203026 74 98 0.0 8.0 0.00 0.00 0.00 41 1007.7
20260901201516 73 221 3.0 12.0 0.00 0.00 0.00 40 1007.8
20260901200027 73 232 2.0 6.0 0.00 0.00 0.00 42 1007.9
20260901194510 72 149 0.0 6.0 0.00 0.00 0.00 45 1008.0
20260901193010 71 218 1.0 5.0 0.00 0.00 0.00 47 1008.2
20260901191518 70 217 0.0 5.0 0.00 0.00 0.00 51 1008.2
20260901190003 69 275 1.0 7.0 0.00 0.00 0.00 53 1008.3
20260901184502 68 338 0.0 5.0 0.00 0.00 0.00 56 1008.4
20260901183059 68 150 0.0 6.0 0.00 0.00 0.00 58 1008.5
20260901181614 66 46 1.0 4.0 0.00 0.00 0.00 59 1008.7
20260901180051 65 276 1.0 6.0 0.00 0.00 0.00 62 1008.7
20260901174547 63 9 1.0 5.0 0.00 0.00 0.00 65 1008.6
20260901173043 62 270 1.0 7.0 0.00 0.00 0.00 66 1008.5
20260901171541 61 236 1.0 4.0 0.00 0.00 0.00 70 1008.4
20260901170046 60 242 0.0 4.0 0.00 0.00 0.00 72 1008.3
20260901164533 59 246 0.0 5.0 0.00 0.00 0.00 75 1008.4
20260901163038 58 240 0.0 5.0 0.00 0.00 0.00 78 1008.3
20260901161529 57 238 0.0 3.0 0.00 0.00 0.00 81 1008.0
20260901160022 55 323 0.0 4.0 0.00 0.00 0.00 84 1007.8
20260901154520 54 333 0.0 5.0 0.00 0.00 0.00 85 1007.6
20260901153024 53 320 1.0 5.0 0.00 0.00 0.00 87 1007.6
20260901151533 52 221 0.0 3.0 0.00 0.00 0.00 87 1007.5
20260901150031 51 221 0.0 1.0 0.00 0.00 0.00 86 1007.3
20260901144517 51 221 0.0 0.0 0.00 0.00 0.00 85 1007.1
20260901143016 51 221 0.0 0.0 0.00 0.00 0.00 85 1007.0
20260901141512 51 221 0.0 2.0 0.00 0.00 0.00 85 1007.0
20260901140009 51 221 0.0 0.0 0.00 0.00 0.00 84 1006.8
20260901134508 52 221 0.0 2.0 0.00 0.00 0.00 85 1006.6
20260901133008 52 221 0.0 4.0 0.00 0.00 0.00 84 1006.5
20260901131510 52 242 0.0 4.0 0.00 0.00 0.00 85 1006.4
20260901130006 52 155 0.0 3.0 0.00 0.00 0.00 85 1006.6
20260901124505 51 219 0.0 3.0 0.00 0.00 0.00 85 1006.6
20260901123002 49 219 0.0 0.0 0.00 0.00 0.00 81 1006.3
20260901121606 50 219 0.0 0.0 0.00 0.00 0.00 81 1006.0
20260901120056 50 219 0.0 0.0 0.00 0.00 0.00 80 1005.7
20260901114554 50 219 0.0 0.0 0.00 0.00 0.00 79 1005.5
20260901113102 50 219 0.0 0.0 0.00 0.00 0.00 79 1005.4
20260901111552 51 219 0.0 0.0 0.00 0.00 0.00 79 1005.3
20260901110051 51 219 0.0 0.0 0.00 0.00 0.00 78 1005.1
20260901104547 51 219 0.0 0.0 0.00 0.00 0.00 78 1004.9
20260901103045 52 219 0.0 0.0 0.00 0.00 0.00 77 1005.0
20260901101559 52 219 0.0 0.0 0.00 0.00 0.00 77 1005.0
20260901100050 52 219 0.0 0.0 0.00 0.00 0.00 76 1005.1
20260901094544 53 219 0.0 0.0 0.00 0.00 0.00 75 1005.1
20260901093037 53 219 0.0 0.0 0.00 0.00 0.00 75 1005.1
20260901091551 54 219 0.0 0.0 0.00 0.00 0.00 75 1005.1
20260901090036 54 219 0.0 0.0 0.00 0.00 0.00 73 1005.2
20260901084538 54 219 0.0 0.0 0.00 0.00 0.00 72 1005.4
20260901083039 54 219 0.0 0.0 0.00 0.00 0.00 72 1005.6
20260901081528 54 219 0.0 0.0 0.00 0.00 0.00 71 1005.7
20260901074524 55 219 0.0 0.0 0.00 0.00 0.00 70 1005.5
20260901073023 56 219 0.0 0.0 0.00 0.00 0.00 69 1005.4
20260901071521 56 219 0.0 0.0 0.00 0.00 0.00 69 1005.4
20260901070028 56 219 0.0 0.0 0.00 0.00 0.00 68 1005.2
20260901064518 56 219 0.0 0.0 0.00 0.00 0.00 68 1005.3
20260901063018 57 219 0.0 0.0 0.00 0.00 0.00 67 1005.2
20260901061515 57 219 0.0 0.0 0.00 0.00 0.00 67 1005.0
20260901060011 57 219 0.0 0.0 0.00 0.00 0.00 66 1004.9
20260901054508 58 219 0.0 0.0 0.00 0.00 0.00 65 1004.9
20260901053006 59 219 0.0 0.0 0.00 0.00 0.00 64 1004.8
20260901051503 59 219 0.0 0.0 0.00 0.00 0.00 63 1005.0
20260901050100 60 219 0.0 0.0 0.00 0.00 0.00 62 1005.1
20260901044615 61 219 0.0 0.0 0.00 0.00 0.00 61 1004.9
20260901043053 62 219 0.0 0.0 0.00 0.00 0.00 59 1004.8
20260901041550 63 219 0.0 0.0 0.00 0.00 0.00 56 1004.6
20260901040057 63 219 0.0 0.0 0.00 0.00 0.00 54 1004.4
20260901034542 64 219 0.0 1.0 0.00 0.00 0.00 53 1004.2
20260901033039 65 219 0.0 0.0 0.00 0.00 0.00 52 1004.1
20260901031536 66 219 0.0 0.0 0.00 0.00 0.00 49 1004.0
20260901030034 68 219 0.0 1.0 0.00 0.00 0.00 47 1003.7
20260901024531 69 219 0.0 2.0 0.00 0.00 0.00 45 1003.6
20260901023021 71 219 1.0 2.0 0.00 0.00 0.00 42 1003.5
20260901021519 74 219 0.0 0.0 0.00 0.00 0.00 39 1003.4
20260901020013 76 219 0.0 2.0 0.00 0.00 0.00 37 1003.3
20260901014509 77 219 0.0 2.0 0.00 0.00 0.00 35 1003.4
20260901013007 78 194 1.0 6.0 0.00 0.00 0.00 33 1003.4
20260901011504 79 248 1.0 3.0 0.00 0.00 0.00 33 1003.4
20260901010059 80 288 0.0 2.0 0.00 0.00 0.00 31 1003.4
20260901004556 82 114 0.0 4.0 0.00 0.00 0.00 31 1003.3